DW3871 Weather Reports


time (UTC)temp
C
wind
direction
speed
KPH
gust
KPH
rain 1hr
cm
rain 24hr
cm
rain mn
cm
humidity
%
barometer
mb
20260506203518 10 10 11.3 19.3 0.00 0.00 0.00 49 1012.9
20260506203028 10 17 9.7 19.3 0.00 0.00 0.00 51 1012.8
20260506202519 11 52 11.3 19.3 0.00 0.00 0.00 52 1012.8
20260506202029 11 13 9.7 17.7 0.00 0.00 0.00 53 1012.8
20260506201519 11 13 14.5 17.7 0.00 0.00 0.00 55 1012.7
20260506201028 11 10 9.7 17.7 0.00 0.00 0.00 55 1012.7
20260506200518 11 16 9.7 16.1 0.00 0.00 0.00 56 1012.7
20260506200027 11 10 11.3 16.1 0.00 0.00 0.00 57 1012.6
20260506195502 11 16 12.9 19.3 0.00 0.00 0.00 57 1012.4
20260506195002 11 13 12.9 19.3 0.00 0.00 0.00 58 1012.3
20260506193430 11 18 12.9 25.7 0.00 0.00 0.00 58 1012.2
20260506192930 11 35 19.3 20.9 0.00 0.00 0.00 59 1012.1
20260506192432 11 10 11.3 20.9 0.00 0.00 0.00 59 1012.1
20260506191929 11 10 14.5 20.9 0.00 0.00 0.00 59 1012.0
20260506190930 12 28 9.7 19.3 0.00 0.00 0.00 57 1011.9
20260506190426 12 10 9.7 20.9 0.00 0.00 0.00 57 1011.8
20260506185918 12 10 14.5 20.9 0.00 0.00 0.00 57 1011.7
20260506185418 12 54 11.3 20.9 0.00 0.00 0.00 56 1011.6
20260506184902 12 28 12.9 25.7 0.00 0.00 0.00 56 1011.5
20260506184402 12 31 19.3 25.7 0.00 0.00 0.00 56 1011.4
20260506183901 12 13 14.5 29.0 0.00 0.00 0.00 56 1011.4
20260506183402 12 28 16.1 29.0 0.00 0.00 0.00 55 1011.3
20260506182831 12 20 17.7 22.5 0.00 0.00 0.00 55 1011.3
20260506182331 13 16 14.5 25.7 0.00 0.00 0.00 55 1011.3
20260506181831 13 17 12.9 25.7 0.00 0.00 0.00 55 1011.3
20260506181330 13 24 20.9 24.1 0.00 0.00 0.00 55 1011.0
20260506180819 13 14 17.7 24.1 0.00 0.00 0.00 56 1011.0
20260506175818 13 21 14.5 29.0 0.00 0.00 0.00 56 1011.0
20260506174807 13 37 17.7 29.0 0.00 0.00 0.00 56 1010.7
20260506173802 13 10 16.1 25.7 0.00 0.00 0.00 56 1010.6
20260506173301 13 48 17.7 25.7 0.00 0.00 0.00 56 1010.6
20260506172232 13 10 14.5 30.6 0.00 0.00 0.00 56 1010.6
20260506171730 13 24 17.7 27.4 0.00 0.00 0.00 56 1010.4
20260506171230 13 31 16.1 27.4 0.00 0.00 0.00 56 1010.5
20260506170229 13 16 20.9 27.4 0.00 0.00 0.00 56 1010.4
20260506165730 13 16 9.7 25.7 0.00 0.00 0.00 56 1010.5
20260506163721 13 59 17.7 25.7 0.00 0.00 0.00 56 1010.4
20260506163219 13 41 14.5 25.7 0.00 0.00 0.00 56 1010.3
20260506162719 13 26 17.7 24.1 0.00 0.00 0.00 56 1010.2
20260506162218 13 28 14.5 24.1 0.00 0.00 0.00 56 1010.2
20260506161723 13 10 14.5 24.1 0.00 0.00 0.00 57 1010.2
20260506161223 13 10 16.1 24.1 0.00 0.00 0.00 56 1010.2
20260506160721 13 21 9.7 24.1 0.00 0.00 0.00 57 1010.2
20260506155718 13 28 16.1 27.4 0.00 0.00 0.00 56 1010.2
20260506155217 13 44 16.1 24.1 0.00 0.00 0.00 56 1010.1
20260506154707 13 66 16.1 22.5 0.00 0.00 0.00 56 1010.2
20260506154203 13 38 9.7 25.7 0.00 0.00 0.00 56 1010.3
20260506153701 13 10 12.9 25.7 0.00 0.00 0.00 56 1010.3
20260506153203 13 10 12.9 22.5 0.00 0.00 0.00 56 1010.2
20260506152702 13 10 14.5 22.5 0.00 0.00 0.00 56 1010.3
20260506152203 13 21 8.0 19.3 0.00 0.00 0.00 56 1010.2
20260506151701 13 40 9.7 27.4 0.00 0.00 0.00 56 1010.2
20260506151138 13 17 17.7 27.4 0.00 0.00 0.00 56 1010.0
20260506150130 13 10 17.7 25.7 0.00 0.00 0.00 56 1010.2
20260506145121 13 24 19.3 24.1 0.00 0.00 0.00 56 1010.1
20260506144620 13 30 12.9 24.1 0.00 0.00 0.00 56 1010.1
20260506144118 13 18 14.5 24.1 0.00 0.00 0.00 56 1010.2
20260506143617 13 10 12.9 24.1 0.00 0.00 0.00 56 1010.2
20260506143118 13 10 14.5 22.5 0.00 0.00 0.00 56 1010.2
20260506142617 13 17 16.1 22.5 0.00 0.00 0.00 56 1010.1
20260506142117 13 21 14.5 20.9 0.00 0.00 0.00 56 1010.1
20260506141617 13 16 14.5 20.9 0.00 0.00 0.00 56 1010.1
20260506141117 13 27 11.3 20.9 0.00 0.00 0.00 56 1010.1
20260506140117 13 17 14.5 22.5 0.00 0.00 0.00 56 1010.1
20260506135617 13 10 14.5 22.5 0.00 0.00 0.00 56 1010.1
20260506134617 13 10 19.3 27.4 0.00 0.00 0.00 56 1010.0
20260506133117 13 11 19.3 27.4 0.00 0.00 0.00 56 1010.0
20260506132617 13 10 19.3 24.1 0.00 0.00 0.00 56 1009.9
20260506132117 13 34 11.3 27.4 0.00 0.00 0.00 56 1010.1
20260506131617 13 13 22.5 27.4 0.00 0.00 0.00 55 1009.9
20260506131117 13 17 11.3 27.4 0.00 0.00 0.00 55 1009.9
20260506130617 13 28 11.3 24.1 0.00 0.00 0.00 55 1009.8
20260506130117 13 26 17.7 24.1 0.00 0.00 0.00 54 1009.8
20260506125617 13 35 8.0 24.1 0.00 0.00 0.00 54 1009.8
20260506125116 13 8 12.9 27.4 0.00 0.00 0.00 54 1009.7
20260506124618 13 14 20.9 27.4 0.00 0.00 0.00 54 1009.6
20260506124117 13 13 17.7 27.4 0.00 0.00 0.00 54 1009.7
20260506123618 13 51 14.5 30.6 0.00 0.00 0.00 55 1009.7
20260506123117 13 5 16.1 30.6 0.00 0.00 0.00 54 1009.7
20260506122617 14 14 16.1 37.0 0.00 0.00 0.00 53 1009.6
20260506122117 14 11 19.3 37.0 0.00 0.00 0.00 53 1009.6
20260506121617 14 37 16.1 30.6 0.00 0.00 0.00 54 1009.7
20260506121117 13 20 22.5 30.6 0.00 0.00 0.00 55 1009.6
20260506120623 13 116 14.5 24.1 0.00 0.00 0.00 55 1009.6
20260506115617 13 35 20.9 25.7 0.00 0.00 0.00 54 1009.6
20260506115117 14 106 17.7 27.4 0.00 0.00 0.00 54 1009.6
20260506114619 13 10 20.9 27.4 0.00 0.00 0.00 54 1009.5
20260506113618 13 21 14.5 27.4 0.00 0.00 0.00 54 1009.7
20260506113118 13 10 19.3 25.7 0.00 0.00 0.00 54 1009.5
20260506112618 13 14 16.1 30.6 0.00 0.00 0.00 52 1009.7
20260506112117 13 47 12.9 30.6 0.00 0.00 0.00 52 1009.6
20260506111617 14 10 16.1 29.0 0.00 0.00 0.00 53 1009.7
20260506111117 13 10 20.9 29.0 0.00 0.00 0.00 54 1009.5
20260506110617 13 10 20.9 27.4 0.00 0.00 0.00 52 1009.7
20260506110117 13 21 17.7 27.4 0.00 0.00 0.00 52 1009.5
20260506105617 13 10 17.7 27.4 0.00 0.00 0.00 52 1009.7
20260506105117 13 35 17.7 27.4 0.00 0.00 0.00 52 1009.6
20260506104617 13 11 19.3 27.4 0.00 0.00 0.00 55 1009.7
20260506104117 13 37 19.3 29.0 0.00 0.00 0.00 54 1009.6
20260506103617 13 10 16.1 29.0 0.00 0.00 0.00 54 1009.6
20260506103117 13 10 20.9 25.7 0.00 0.00 0.00 51 1009.5
20260506102617 13 42 14.5 29.0 0.00 0.00 0.00 51 1009.7
20260506102117 13 28 16.1 29.0 0.00 0.00 0.00 50 1009.6
20260506101617 13 11 17.7 25.7 0.00 0.00 0.00 45 1009.4
20260506101117 12 28 16.1 25.7 0.00 0.00 0.00 41 1009.7
20260506095617 12 33 16.1 24.1 0.00 0.00 0.00 42 1009.6
20260506095116 12 10 19.3 29.0 0.00 0.00 0.00 41 1009.6
20260506094617 12 13 19.3 30.6 0.00 0.00 0.00 42 1009.3
20260506094117 13 10 20.9 30.6 0.00 0.00 0.00 39 1009.5
20260506093616 12 13 17.7 25.7 0.00 0.00 0.00 31 1009.5
20260506092616 12 10 14.5 29.0 0.00 0.00 0.00 26 1009.5
20260506092116 12 49 14.5 29.0 0.00 0.00 0.00 27 1009.5
20260506091608 12 14 19.3 27.4 0.00 0.00 0.00 25 1009.3
20260506091101 12 10 22.5 29.0 0.00 0.00 0.00 24 1009.2
20260506090601 12 10 19.3 29.0 0.00 0.00 0.00 22 1009.3
20260506090040 12 18 24.1 29.0 0.00 0.00 0.00 19 1009.3
20260506085532 12 10 16.1 25.7 0.00 0.00 0.00 19 1009.3
20260506085030 12 17 16.1 29.0 0.00 0.00 0.00 14 1009.3
20260506084529 12 10 14.5 29.0 0.00 0.00 0.00 15 1009.4
20260506084017 12 42 19.3 25.7 0.00 0.00 0.00 12 1009.4
20260506083517 12 10 20.9 25.7 0.00 0.00 0.00 12 1009.3
20260506083017 12 14 14.5 22.5 0.00 0.00 0.00 10 1009.3
20260506082517 11 10 17.7 24.1 0.00 0.00 0.00 12 1009.3
20260506081517 11 14 19.3 25.7 0.00 0.00 0.00 13 1009.2
20260506081017 11 10 12.9 22.5 0.00 0.00 0.00 13 1009.3
20260506080517 11 31 14.5 29.0 0.00 0.00 0.00 14 1009.3
20260506073502 11 10 19.3 27.4 0.00 0.00 0.00 1 1009.0
20260506073002 11 10 17.7 24.1 0.00 0.00 0.00 1 1009.1
20260506072503 11 10 17.7 24.1 0.00 0.00 0.00 1 1009.2
20260506071502 11 24 16.1 25.7 0.00 0.00 0.00 1 1009.1
20260506071002 11 13 16.1 24.1 0.00 0.00 0.00 1 1009.1
20260506070502 11 10 17.7 25.7 0.00 0.00 0.00 1 1009.1
20260506062430 11 10 20.9 29.0 0.00 0.00 0.00 1 1008.8
20260506061924 11 10 22.5 29.0 0.00 0.00 0.00 1 1008.9
20260506061423 10 10 24.1 29.0 0.00 0.00 0.00 1 1008.8
20260506060917 11 10 22.5 29.0 0.00 0.00 0.00 1 1008.9
20260506060416 10 10 19.3 27.4 0.00 0.00 0.00 1 1008.7
20260506051330 10 10 17.7 24.1 0.00 0.00 0.00 1 1008.9
20260506050831 10 10 17.7 24.1 0.00 0.00 0.00 1 1008.9
20260506050330 10 26 17.7 24.1 0.00 0.00 0.00 1 1008.9
20260506044829 10 10 16.1 24.1 0.00 0.00 0.00 1 1008.9
20260506044321 10 10 17.7 22.5 0.00 0.00 0.00 1 1009.0
20260506043817 10 13 19.3 22.5 0.00 0.00 0.00 1 1008.9
20260506043316 10 1 17.7 25.7 0.00 0.00 0.00 1 1008.9
20260506042816 10 10 14.5 25.7 0.00 0.00 0.00 1 1009.0
20260506042316 10 13 20.9 25.7 0.00 0.00 0.00 1 1008.9
20260506041316 10 44 14.5 29.0 0.00 0.00 0.00 1 1009.0
20260506040816 10 10 14.5 29.0 0.00 0.00 0.00 1 1009.0
20260506040316 10 10 17.7 29.0 0.00 0.00 0.00 1 1008.9
20260506035817 10 10 19.3 29.0 0.00 0.00 0.00 1 1009.0
20260506035317 10 14 22.5 30.6 0.00 0.00 0.00 1 1008.9
20260506034815 10 13 27.4 30.6 0.00 0.00 0.00 1 1008.8
20260506034316 10 24 24.1 29.0 0.00 0.00 0.00 1 1009.0
20260506033817 10 10 17.7 25.7 0.00 0.00 0.00 1 1009.0
20260506033322 10 17 16.1 25.7 0.00 0.00 0.00 1 1009.0
20260506032816 10 17 19.3 25.7 0.00 0.00 0.00 1 1009.1
20260506032316 10 10 17.7 27.4 0.00 0.00 0.00 1 1009.1
20260506031816 10 13 19.3 30.6 0.00 0.00 0.00 1 1009.2
20260506031316 10 10 22.5 32.2 0.00 0.00 0.00 1 1009.2
20260506030816 10 14 24.1 32.2 0.00 0.00 0.00 1 1009.1
20260506030316 10 10 24.1 32.2 0.00 0.00 0.00 1 1009.2
20260506024817 10 10 20.9 29.0 0.00 0.00 0.00 1 1009.3
20260506023816 10 20 24.1 29.0 0.00 0.00 0.00 1 1009.3
20260506023317 10 10 22.5 27.4 0.00 0.00 0.00 1 1009.4
20260506022816 10 10 19.3 27.4 0.00 0.00 0.00 1 1009.3
20260506021816 10 10 20.9 24.1 0.00 0.00 0.00 1 1009.4
20260506021315 10 14 16.1 24.1 0.00 0.00 0.00 1 1009.5
20260506020316 10 26 17.7 22.5 0.00 0.00 0.00 1 1009.5
20260506015816 10 10 16.1 20.9 0.00 0.00 0.00 3 1009.5
20260506015317 10 10 12.9 19.3 0.00 0.00 0.00 3 1009.7
20260506014817 10 14 14.5 22.5 0.00 0.00 0.00 3 1009.5
20260506014317 10 10 19.3 22.5 0.00 0.00 0.00 3 1009.7
20260506013816 10 10 17.7 24.1 0.00 0.00 0.00 2 1009.7
20260506013316 10 14 17.7 24.1 0.00 0.00 0.00 3 1009.6
20260506012816 9 28 14.5 19.3 0.00 0.00 0.00 3 1009.6
20260506012317 9 18 12.9 17.7 0.00 0.00 0.00 4 1009.7
20260506011816 9 10 14.5 19.3 0.00 0.00 0.00 4 1009.6
20260506011316 9 17 14.5 19.3 0.00 0.00 0.00 4 1009.6
20260506010816 9 14 14.5 19.3 0.00 0.00 0.00 5 1009.8
20260506005816 9 16 12.9 19.3 0.00 0.00 0.00 5 1009.8
20260506005316 9 24 12.9 19.3 0.00 0.00 0.00 6 1009.9
20260506004816 9 10 11.3 19.3 0.00 0.00 0.00 6 1009.9
20260506004316 9 10 14.5 19.3 0.00 0.00 0.00 6 1009.9
20260506003816 9 10 12.9 19.3 0.00 0.00 0.00 6 1010.0
20260506003322 9 20 14.5 19.3 0.00 0.00 0.00 7 1010.0
20260506002816 9 10 12.9 19.3 0.00 0.00 0.00 7 1010.1
20260506002317 9 13 14.5 19.3 0.00 0.00 0.00 8 1010.2
20260506001816 9 10 14.5 20.9 0.00 0.00 0.00 9 1010.2
20260506001316 9 16 14.5 20.9 0.00 0.00 0.00 9 1010.3
20260506000816 9 13 16.1 20.9 0.00 0.00 0.00 10 1010.2
20260506000316 9 11 16.1 20.9 0.00 0.00 0.00 11 1010.2
20260505235816 9 10 14.5 20.9 0.00 0.00 0.00 11 1010.3
20260505234815 9 10 12.9 17.7 0.00 0.00 0.00 14 1010.5
20260505234316 9 27 12.9 17.7 0.00 0.00 0.00 14 1010.6
20260505233815 9 17 12.9 22.5 0.00 0.00 0.00 14 1010.5
20260505233317 9 353 16.1 22.5 0.00 0.00 0.00 14 1010.4
20260505232816 9 10 16.1 20.9 0.00 0.00 0.00 15 1010.5
20260505232316 9 10 12.9 19.3 0.00 0.00 0.00 16 1010.5
20260505231816 9 10 12.9 19.3 0.00 0.00 0.00 16 1010.7
20260505231309 9 10 12.9 20.9 0.00 0.00 0.00 16 1010.8
20260505230802 9 21 17.7 20.9 0.00 0.00 0.00 17 1010.7
20260505230255 9 24 12.9 20.9 0.00 0.00 0.00 17 1010.7
20260505225745 9 358 14.5 19.3 0.00 0.00 0.00 17 1010.8
20260505225240 9 10 11.3 17.7 0.00 0.00 0.00 18 1010.7
20260505223730 9 17 9.7 17.7 0.00 0.00 0.00 19 1010.8
20260505222729 9 28 11.3 17.7 0.00 0.00 0.00 20 1010.8
20260505221726 9 357 9.7 17.7 0.00 0.00 0.00 21 1010.8
20260505221221 9 14 9.7 19.3 0.00 0.00 0.00 21 1010.9
20260505220721 9 35 9.7 19.3 0.00 0.00 0.00 21 1011.0
20260505215716 9 33 12.9 19.3 0.00 0.00 0.00 22 1011.0
20260505215215 10 28 11.3 19.3 0.00 0.00 0.00 23 1011.0
20260505214702 10 20 12.9 17.7 0.00 0.00 0.00 24 1011.1
20260505214202 10 20 14.5 17.7 0.00 0.00 0.00 24 1011.2
20260505213701 10 11 11.3 17.7 0.00 0.00 0.00 24 1011.1
20260505212702 10 47 12.9 16.1 0.00 0.00 0.00 26 1011.2
20260505211655 10 24 8.0 20.9 0.00 0.00 0.00 28 1011.2
20260505211139 10 14 11.3 20.9 0.00 0.00 0.00 29 1011.2
20260505210640 10 11 11.3 22.5 0.00 0.00 0.00 30 1011.2
20260505210139 10 37 11.3 22.5 0.00 0.00 0.00 30 1011.2
20260505204629 10 17 12.9 19.3 0.00 0.00 0.00 32 1011.1
20260505204130 10 23 11.3 16.1 0.00 0.00 0.00 32 1011.2